This demonstration page uses our WeatherBlox Daily Observations layout. Learn more.

Left ArrowRight Arrow

Hourly Observations for July 17, 2017

Temp ( °F °C ) Dew Point ( °F °C ) Humidity (%) Winds ( mph kmh ) Pressure ( in mb ) Visibility ( mi km ) Precip ( " mm )
12:53 am 00:53 Clear 73 22.8 68 20 84 84 NW 16 26 30.01 1016 10 16 N/A
1:53 am 01:53 Partly Cloudy 72 22.2 66 18.9 82 82 N N/A 29.98 1015 10 16 N/A
2:53 am 02:53 Clear 72 22.2 67 19.4 84 84 N N/A 29.91 1013 10 16 N/A
3:53 am 03:53 Clear 72 22.2 64 17.8 76 76 ENE 7 11 29.95 1014 10 16 N/A
4:53 am 04:53 Clear 67 19.4 65 18.3 93 93 N 5 7 29.95 1014 9 14 N/A
5:53 am 05:53 Clear 66 18.9 65 18.3 96 96 N N/A 29.96 1015 8 13 N/A
6:53 am 06:53 Sunny 65 18.3 65 18.3 100 100 N N/A 29.99 1016 7 11 N/A
7:53 am 07:53 Sunny 70 21.1 66 18.9 87 87 NNW 3 6 30.01 1016 8 13 N/A
8:53 am 08:53 Sunny 74 23.3 67 19.4 79 79 N N/A 30.03 1017 8 13 N/A
9:53 am 09:53 Sunny 77 25 68 20 74 74 NNE 3 6 30.03 1017 9 14 N/A
10:53 am 10:53 Sunny 80 26.7 68 20 67 67 NW 3 6 30.03 1017 9 14 N/A
11:53 am 11:53 Partly Cloudy 83 28.3 67 19.4 59 59 VRB 3 6 30.02 1017 9 14 N/A
12:53 pm 12:53 Mostly Sunny 85 29.4 69 20.6 59 59 VRB 5 7 30.02 1017 9 14 N/A
1:53 pm 13:53 Mostly Cloudy 85 29.4 69 20.6 59 59 N N/A 30.00 1016 9 14 N/A
2:53 pm 14:53 Cloudy 84 28.9 69 20.6 61 61 NNW 3 6 30.00 1016 9 14 N/A
3:53 pm 15:53 Mostly Cloudy 86 30 70 21.1 59 59 NNW 7 11 29.99 1016 9 14 N/A
4:53 pm 16:53 Mostly Sunny 87 30.6 70 21.1 57 57 N N/A 29.98 1015 9 14 N/A
5:53 pm 17:53 Mostly Cloudy 88 31.1 70 21.1 55 55 NE 5 7 29.97 1015 9 14 N/A
6:00 pm 18:00 Partly Cloudy 88 31.1 70 21.1 55 55 VRB 3 6 29.97 1015 10 16 N/A
6:53 pm 18:53 Mostly Sunny 88 31.1 69 20.6 54 54 N N/A 29.97 1015 10 16 N/A
7:53 pm 19:53 Cloudy 85 29.4 71 21.7 63 63 VRB 3 6 29.98 1015 10 16 N/A
8:53 pm 20:53 Mostly Cloudy 79 26.1 74 23.3 85 85 N N/A 29.99 1016 9 14 N/A
9:53 pm 21:53 Clear 75 23.9 72 22.2 90 90 N N/A 29.99 1016 8 13 N/A
10:53 pm 22:53 Partly Cloudy 75 23.9 71 21.7 88 88 N N/A 30.01 1016 9 14 N/A
11:53 pm 23:53 Partly Cloudy 74 23.3 72 22.2 94 94 N N/A 30.00 1016 9 14 N/A

Powered by AerisWeather